www.pogodaiklimat.ru

Погода и климат >> Архив погоды >> Канада >> Baker Lake Airport


ПОГОДА в Baker Lake Airport

  • Прогноз погоды в Baker Lake Airport
  • Монитор погоды в Baker Lake Airport
  • Климат города

АРХИВ ПОГОДЫ в Baker Lake Airport

Время (UTC), дата Ветер
(напр.,м/с)
 
Видим.   Явления Облачность Т
(С)
Тd
(С)
f
(%)
Тe
(С)
Тes
(С)
Комфортность P
(гПа)
Po
(гПа)
Тmin
(С)
Tmax
(С)
R
(мм)
R24
(мм)
S
(см)
18 11.12 ЮЗ 3 30 км {снег} 9/9 100 м
[St]
-9.1 -10.5 90 -15 -15 996.2 993.8 0.0 18
21 11.12 З 5 16 км 9/9 50 м
[]
-7.6 -8.9 90 -15 -15 996.1 993.7
00 12.12 СЗ 5 24 км 9/9 200 м
[Sc]
-7.9 -9.4 89 -16 -16 996.9 994.5 -7.2 18
03 12.12 СВ 2 12 км 10/10 50 м
[]
-8.6 -9.4 94 -12 -12 996.9 994.5
06 12.12 С 2 16 км туман {снег} 10/10 50 м
[St]
-9.5 -10.5 92 -14 -14 997.0 994.6 0.0 101
09 12.12 Ю 1 12 км 10/10 100 м
[]
-9.6 -10.7 92 -12 -12 997.2 994.8
12 12.12 ЮВ 3 9000 м 10/10 50 м
[St]
-8.8 -9.8 92 -15 -15 996.8 994.4 -9.9 0.0
15 12.12 ЮВ 8 1200 м 10/10 200 м
[]
-9.6 -10.8 91 -19 -19 995.8 993.4
18 12.12 ЮВ 7 16 км слабый снег 10/10 100 м
[Sc]
-10.9 -12.3 89 -20 -20 995.4 993.0 -10.9 -8.7 0.0 18
21 12.12 ЮВ 5 16 км 10/10 100 м
[]
-11.4 -12.8 89 -19 -19 995.5 993.1
00 13.12 1600 м слабый снег н/о -10.4 -11.7 90 -19 -19 995.5 993.1 -11.8 -8.7 0.0 18
03 13.12 ЮВ 6 24 км 10/10 200 м
[]
-10.4 -11.7 90 -19 -19 995.0 992.6
06 13.12 ЮВ 7 24 км слабый снег 10/10 300 м
[Sc]
-11.1 -12.5 89 -21 -21 994.4 992.0 -11.8 -8.7 0.0 61
09 13.12 ЮВ 7 24 км 10/10 300 м
[]
-11.4 -12.9 89 -21 -21 994.0 991.6
12 13.12 ЮВ 9 24 км ледяные иглы {снег} 10/10 200 м
[Sc]
-9.6 -10.9 90 -20 -20 992.6 990.2 -11.9 -8.7 0.0 18
15 13.12 ЮВ 9 24 км 10/10 300 м
[]
-9.8 -11.1 90 -20 -20 991.9 989.5
18 13.12 ЮВ 7 24 км слабый снег 10/10 300 м
[Sc]
-9.8 -11.1 90 -19 -19 990.7 988.3 -11.9 -9.2 0.0 18
21 13.12 ЮВ 7 16 км 10/10 300 м
[]
-9.6 -10.9 90 -19 -19 989.9 987.5
00 14.12 ЮВ 6 24 км слабый снег 10/10 100 м
[Sc]
-9.8 -11.1 90 -18 -18 989.4 987.0 -11.9 -9.2 0.0 18
03 14.12 В 4 12 км 10/10 100 м
[]
-9.4 -10.6 91 -16 -16 988.2 985.8
06 14.12 З 2 24 км слабый снег 10/10 100 м
[Sc]
-10.1 -11.4 90 -15 -15 987.9 985.5 -11.9 -9.2 0.0 131
09 14.12 З 2 24 км 10/10 300 м
[]
-10.4 -11.9 89 -14 -14 988.3 985.9
12 14.12 З 2 24 км слабый снег 10/10 1000 м
[Sc]
-10.5 -12.1 88 -14 -14 988.6 986.2 -10.6 -9.2 0.0 18
15 14.12 ЮЗ 2 24 км 10/10 1500 м
[]
-10.9 -12.4 89 -15 -15 989.1 986.7
18 14.12 З 11 24 км слабый снег 10/10 1000 м
[Sc]
-11.6 -13.7 84 -23 -23 989.3 986.9 -11.6 -9.9 0.8 18
21 14.12 З 11 16 км 10/10 600 м
[]
-12.9 -15.4 81 -25 -25 990.4 988.0
00 15.12 З 9 4800 м слабый снег 10/10 600 м
[Sc]
-13.1 -15.3 83 -24 -24 991.9 989.5 -13.4 -10.1 0.4 18
03 15.12 СЗ 10 24 км 10/10 1500 м
[]
-11.7 -13.8 84 -23 -23 993.0 990.6
06 15.12 СЗ 13 6000 м слабый снег 9/3 1000 м
[Sc Ac trans]
-14.6 -16.9 83 -28 -28 995.0 992.6 -14.6 -9.9 0.0 61
09 15.12 СЗ 14 4800 м 3/0
[]
-18.4 -21.1 79 -33 -33 опасность
обморожения
996.8 994.4
12 15.12 СЗ 13 24 км ледяные иглы {снег} 1/0
[Ac trans]
-20.8 -23.8 77 -24 -24 1000.2 997.8 -20.8 -9.9 0.0 18
15 15.12 З 9 24 км ясно -21.6 -24.5 77 -35 -35 опасность
обморожения
1000.8 998.4
18 15.12 Ю 3 40 км ледяные иглы {снег} 9/9 1500 м
[Sc Ci sp]
-20.7 -24.0 75 -29 -29 1003.0 1000.6 -23.5 -14.6 0.0 18
21 15.12 В 2 24 км 10/10 300 м
[]
-18.8 -21.8 77 -23 -23 1003.6 1001.1
00 16.12 СЗ 7 24 км ледяные иглы {снег} 10/10 300 м
[Sc]
-19.2 -22.4 76 -31 -31 опасность
обморожения
1005.7 1003.2 -23.5 -18.6 0.0 18
03 16.12 СЗ 12 24 км 10/10 300 м
[]
-18.4 -21.2 79 -33 -33 опасность
обморожения
1005.5 1003.0
06 16.12 СЗ 9 24 км слабый снег 10/10 300 м
[Sc]
-18.2 -20.9 79 -31 -31 опасность
обморожения
1006.9 1004.4 -23.5 -14.6 0.0 92
09 16.12 СЗ 10 24 км 8/8 600 м
[]
-18.4 -21.2 79 -32 -32 опасность
обморожения
1008.1 1005.6
12 16.12 СЗ 9 24 км ледяные иглы {снег} 5/0
[Ac trans Ci fib]
-19.4 -22.3 78 -32 -32 опасность
обморожения
1010.5 1008.0 -19.5 -14.6 0.0 18
15 16.12 СЗ 12 24 км 10/10 1500 м
[]
-19.1 -22.0 78 -33 -33 опасность
обморожения
1012.0 1009.5
18 16.12 СЗ 15 4800 м ледяные иглы {снег} 9/6 1500 м
[Sc Ac As Ci sp]
-21.1 -24.0 77 -37 -37 опасность
обморожения
1012.7 1010.2 -21.1 -17.4 0.0 18
21 16.12 СЗ 13 9000 м 9/0
[]
-22.0 -25.2 75 -38 -38 опасность
обморожения
1015.8 1013.3
00 17.12 СЗ 11 20 км ледяные иглы {снег} 9/0
[Ac As]
-23.1 -26.2 76 -38 -38 опасность
обморожения
1017.3 1014.8 -23.1 -18.7 0.0 18
03 17.12 СЗ 11 16 км 3/0 2000 м
[]
-26.3 -29.9 72 -43 -43 опасность
обморожения
1018.9 1016.4
06 17.12 СЗ 14 1200 м ледяные иглы {снег} 9/9 200 м
[Sc]
-25.3 -28.5 75 -43 -43 опасность
обморожения
1019.2 1016.7 -26.5 -17.4 0.0 12
09 17.12 СЗ 13 11 км 10/10 300 м
[]
-28.1 -31.6 72 -46 -46 опасность
обморожения
1021.1 1018.6
12 17.12 СЗ 9 16 км ледяные иглы {снег} 10/10 300 м
[Sc]
-26.4 -30.0 72 -42 -42 опасность
обморожения
1019.9 1017.4 -28.2 -17.4 0.0 18
15 17.12 СЗ 13 9000 м 10/10 300 м
[]
-26.7 -30.2 72 -44 -44 опасность
обморожения
1019.9 1017.4
18 17.12 СЗ 11 24 км ледяные иглы {снег} 10/9 300 м
[Sc]
-26.9 -30.4 72 -43 -43 опасность
обморожения
1019.2 1016.7 -28.2 -24.7 0.0 18
21 17.12 СЗ 4 30 км 5/5 600 м
[]
-27.0 -30.3 73 -37 -37 опасность
обморожения
1019.5 1017.0
00 18.12 З 5 24 км ледяные иглы {снег} 5/5
[Sc Ac trans]
-27.6 -31.2 71 -39 -39 опасность
обморожения
1017.9 1015.4 -28.3 -24.7 0.0 18
03 18.12 ЮЗ 2 24 км 9/0
[]
-25.2 -28.5 74 -32 -32 опасность
обморожения
1016.5 1014.0
06 18.12 С 2 24 км {снег} 9/0
[Ac trans]
-25.2 -28.5 74 -32 -32 опасность
обморожения
1014.3 1011.8 -28.3 -24.7 0.0 92
09 18.12 З 2 24 км 9/0
[]
-23.9 -27.2 74 -29 -29 1012.5 1010.0
12 18.12 С 3 24 км 10/0
[Ac As]
-22.7 -26.4 72 -30 -30 1011.1 1008.6 -27.4 -24.7 18
15 18.12 СВ 2 24 км 10/0
[]
-22.4 -26.2 71 -27 -27 1010.0 1007.5

 

Местоположение метеостанции Baker Lake Airport (Канада): широта 64.30 долгота -96.06 высота над уровнем моря 18 м.

В архиве по умолчанию представлена погода в Baker Lake Airport за последнюю неделю. Архивные данные за месяц целиком и за предыдущие месяцы, начиная с января 2011 года, Вы можете получить, выбрав интересующий диапазон дат из раскрывающегося списка и нажав кнопку "Ввод!".


*Определитесь, кто Вы:
робот инопланетянин человек

Внимание! Время в таблицах - всемирное. Для получения местного времени необходимо прибавить поправку, которая в Baker Lake Airport равна -6 ч.

Смотрите также архив погоды в соседних городах и на ближайших метеорологических станциях:

Погода в Baker Lake Climate (Канада) (4 км)
Погода в Back River MAPS (Канада) (199 км)
Погода в Rankin Inlet (Канада) (256 км)
Погода в Dubawnt Lake (Канада) (302 км)
Погода в Robertson Lake (Канада) (314 км)
Погода в Wager Bay (Канада) (357 км)
Погода в Arviat Climate (Канада) (370 км)
Погода в Arviat (Канада) (370 км)
Погода в Arviat Airport (Канада) (371 км)
Погода в Hanbury River ARS (Канада) (451 км)

Пояснения к столбцам:

Ветер - указаны скорость ветра в м/с - средняя за 10 мин, порывы в срок и между сроками (в фигурных скобках) и направление, откуда дует ветер: С - северный, СВ - северо-восточный, В - восточный, ЮВ - юго-восточный, Ю - южный, ЮЗ - юго-западный, З - западный, СЗ - северо-западный.
Видимость - горизонтальная дальность видимости в метрах или километрах. При видимости от 1 до 10 км при отсутствии осадков обычно наблюдается дымка, при ухудшении видимости до 1 км и менее - туман. В сухую погоду видимость может ухудшаться дымом, пылью или мглою.
Явления - указаны атмосферные явления, наблюдавшиеся в срок или в последний час перед сроком; фигурными скобками обозначены явления, наблюдавшиеся между сроками (за 1-3 часа до срока); квадратными скобками обозначены град или гололедные отложения с указанием их диаметра в мм.
Облачность - указаны через наклонную черту общая и нижняя облачность в баллах и высота нижней границы облаков в метрах; квадратными скобками обозначены формы облаков: Ci - перистые, Cs - перисто-слоистые, Cc - перисто-кучевые, Ac - высококучевые, As - высокослоистые, Sc - слоисто-кучевые, Ns - слоисто-дождевые, Cu - кучевые, Cb - кучево-дождевые. Подробнее классификацию облаков см. в Атласе облаков (PDF).
T - Температура воздуха - температура, измеренная на высоте 2 м над землей.
Td - Температура точки росы - температура, при понижении до которой содержащийся в воздухе водяной пар достигнет насыщения.
f - Относительная влажность воздуха - влажноcть воздуха, измеренная на высоте 2 м над землей.
Te - Эффективная температура - температура, которую ощущает одетый по сезону человек в тени. Характеристика душности погоды. При расчете учитывается влияние влажности воздуха и скорости ветра на теплоощущения человека.
Tes - Эффективная температура на солнце - температура, которую ощущает человек, с поправкой на солнечный нагрев. Характеристика знойности погоды. Зависит от высоты солнца над горизонтом, облачности и скорости ветра. Ночью, в пасмурную погоду, а также при ветре 12 м/с и более поправка равна нулю.
P - Атмосферное давление - приведенное к уровню моря атмосферное давление.
Po - Атмосферное давление - измеренное на уровне метеостанции атмосферное давление.
Tmin - Минимальная температура - минимум температуры воздуха на высоте 2 м над землей.
Tmax - Максимальная температура - максимум температуры воздуха на высоте 2 м над землей.
R - Количество осадков - Количество выпавших осадков за период времени, мм. При наведении курсора мыши на число - период времени, за который выпало указанное количество осадков.
R24 - Количество осадков - Количество выпавших осадков за 24 часа, мм.
S - Снежный покров - Высота снежного покрова, см. При наведении курсора мыши на число - состояние снежного покрова и степень покрытия местности в баллах.